• In Hungary
  • List of Countries
  • For 7 days
  • Water Temperature
  • Satellite Maps
  • Weather Map
  • News
  • Weather Widgets
  • user-avatar
    Login

    Hourly Weather Ekendil

    Today, 26 September, Wednesday

    Time Temperature Precipitation Wind Pressure Humidity
    00:00 +21°C° 0 mm 2 mps 727 mmHg 70%
    01:00 +21°C° 0 mm 2 mps 727 mmHg 72%
    02:00 +21°C° 0 mm 2 mps 727 mmHg 74%
    03:00 +21°C° 0 mm 3 mps 728 mmHg 73%
    04:00 +21°C° 0 mm 3 mps 728 mmHg 78%
    05:00 +20°C° 0 mm 3 mps 728 mmHg 83%
    06:00 +20°C° 0 mm 3 mps 729 mmHg 89%
    07:00 +21°C° 0.1 mm 4 mps 729 mmHg 85%
    08:00 +22°C° 0.1 mm 4 mps 730 mmHg 80%
    09:00 +23°C° 0.1 mm 5 mps 730 mmHg 76%
    10:00 +22°C° 0.1 mm 5 mps 730 mmHg 76%
    11:00 +22°C° 0.1 mm 5 mps 730 mmHg 77%
    12:00 +22°C° 0.1 mm 5 mps 730 mmHg 77%
    13:00 +21°C° 0.1 mm 5 mps 731 mmHg 78%
    14:00 +21°C° 0.1 mm 5 mps 731 mmHg 78%
    15:00 +20°C° 0.1 mm 5 mps 731 mmHg 79%
    16:00 +19°C° 0.1 mm 5 mps 731 mmHg 82%
    17:00 +17°C° 0.1 mm 5 mps 732 mmHg 86%
    18:00 +16°C° 0.1 mm 5 mps 732 mmHg 90%
    19:00 +17°C° 0.1 mm 4 mps 732 mmHg 90%
    20:00 +17°C° 0.1 mm 4 mps 733 mmHg 90%
    21:00 +15°C° 0.1 mm 4 mps 733 mmHg 91%
    22:00 +15°C° 0.1 mm 4 mps 733 mmHg 90%
    23:00 +15°C° 0.1 mm 4 mps 734 mmHg 90%

    Tomorrow, 27 September, Thursday

    Time Temperature Precipitation Wind Pressure Humidity
    00:00 +16°C° 0.1 mm 3 mps 734 mmHg 90%
    01:00 +16°C° 0.1 mm 3 mps 734 mmHg 90%
    02:00 +16°C° 0.1 mm 3 mps 734 mmHg 90%
    03:00 +14°C° 0.1 mm 3 mps 734 mmHg 91%
    04:00 +14°C° 0.1 mm 3 mps 734 mmHg 90%
    05:00 +14°C° 0.1 mm 3 mps 734 mmHg 90%
    06:00 +14°C° 0.1 mm 3 mps 734 mmHg 89%
    07:00 +16°C° 0.1 mm 3 mps 734 mmHg 85%
    08:00 +17°C° 0.1 mm 4 mps 735 mmHg 80%
    09:00 +18°C° 0.1 mm 4 mps 735 mmHg 75%
    10:00 +18°C° 0 mm 4 mps 735 mmHg 73%
    11:00 +19°C° 0 mm 4 mps 735 mmHg 72%
    12:00 +19°C° 0 mm 4 mps 735 mmHg 71%
    13:00 +19°C° 0 mm 4 mps 735 mmHg 72%
    14:00 +19°C° 0 mm 4 mps 735 mmHg 73%
    15:00 +19°C° 0 mm 3 mps 734 mmHg 74%
    16:00 +18°C° 0 mm 3 mps 734 mmHg 79%
    17:00 +17°C° 0 mm 2 mps 734 mmHg 84%
    18:00 +16°C° 0 mm 2 mps 734 mmHg 89%
    19:00 +16°C° 0 mm 2 mps 734 mmHg 89%
    20:00 +16°C° 0 mm 2 mps 735 mmHg 89%
    21:00 +16°C° 0 mm 2 mps 735 mmHg 89%
    22:00 +16°C° 0 mm 1 mps 735 mmHg 88%
    23:00 +15°C° 0 mm 1 mps 734 mmHg 87%

    Day after tomorrow, 28 September, Friday

    Time Temperature Precipitation Wind Pressure Humidity
    00:00 +15°C° 0 mm 1 mps 734 mmHg 86%
    01:00 +15°C° 0 mm 1 mps 734 mmHg 86%
    02:00 +15°C° 0 mm 1 mps 734 mmHg 86%
    03:00 +15°C° 0 mm 1 mps 734 mmHg 85%
    04:00 +15°C° 0 mm 1 mps 734 mmHg 85%
    05:00 +15°C° 0 mm 1 mps 734 mmHg 84%
    06:00 +15°C° 0 mm 1 mps 734 mmHg 83%
    07:00 +18°C° 0 mm 1 mps 735 mmHg 76%
    08:00 +19°C° 0 mm 2 mps 735 mmHg 69%
    09:00 +21°C° 0 mm 2 mps 735 mmHg 62%
    10:00 +22°C° 0 mm 3 mps 735 mmHg 62%
    11:00 +22°C° 0 mm 3 mps 735 mmHg 61%
    12:00 +23°C° 0 mm 4 mps 735 mmHg 61%
    13:00 +22°C° 0 mm 4 mps 734 mmHg 64%
    14:00 +22°C° 0 mm 4 mps 734 mmHg 67%
    15:00 +22°C° 0 mm 4 mps 733 mmHg 70%
    16:00 +21°C° 0 mm 4 mps 733 mmHg 75%
    17:00 +19°C° 0 mm 3 mps 733 mmHg 81%
    18:00 +18°C° 0 mm 3 mps 733 mmHg 87%
    19:00 +18°C° 0 mm 3 mps 733 mmHg 85%
    20:00 +18°C° 0 mm 3 mps 733 mmHg 84%
    21:00 +17°C° 0 mm 3 mps 733 mmHg 83%
    22:00 +17°C° 0 mm 2 mps 732 mmHg 81%
    23:00 +17°C° 0 mm 2 mps 732 mmHg 79%

    29 September, Saturday

    Time Temperature Precipitation Wind Pressure Humidity
    00:00 +17°C° 0 mm 2 mps 731 mmHg 77%
    01:00 +17°C° 0 mm 2 mps 731 mmHg 75%
    02:00 +17°C° 0 mm 2 mps 731 mmHg 74%
    03:00 +17°C° 0 mm 2 mps 730 mmHg 72%
    04:00 +17°C° 0 mm 2 mps 730 mmHg 70%
    05:00 +17°C° 0 mm 2 mps 730 mmHg 67%
    06:00 +17°C° 0 mm 2 mps 730 mmHg 65%
    07:00 +19°C° 0 mm 2 mps 730 mmHg 59%
    08:00 +23°C° 0 mm 2 mps 730 mmHg 53%
    09:00 +25°C° 0 mm 2 mps 730 mmHg 46%
    10:00 +26°C° 0 mm 2 mps 729 mmHg 46%
    11:00 +27°C° 0 mm 2 mps 729 mmHg 45%
    12:00 +28°C° 0 mm 3 mps 729 mmHg 44%
    13:00 +27°C° 0 mm 3 mps 728 mmHg 47%
    14:00 +27°C° 0 mm 2 mps 728 mmHg 49%
    15:00 +27°C° 0 mm 2 mps 728 mmHg 52%
    16:00 +25°C° 0 mm 2 mps 728 mmHg 61%
    17:00 +23°C° 0 mm 1 mps 728 mmHg 70%
    18:00 +21°C° 0 mm 1 mps 728 mmHg 79%
    19:00 +21°C° 0 mm 1 mps 728 mmHg 76%
    20:00 +21°C° 0 mm 1 mps 728 mmHg 73%
    21:00 +21°C° 0 mm 1 mps 728 mmHg 70%
    22:00 +21°C° 0 mm 1 mps 728 mmHg 67%
    23:00 +21°C° 0 mm 1 mps 728 mmHg 63%

    30 September, Sunday

    Time Temperature Precipitation Wind Pressure Humidity
    00:00 +21°C° 0 mm 1 mps 728 mmHg 60%
    01:00 +21°C° 0 mm 1 mps 728 mmHg 57%
    02:00 +21°C° 0 mm 1 mps 728 mmHg 53%
    03:00 +21°C° 0 mm 1 mps 727 mmHg 50%
    04:00 +21°C° 0 mm 1 mps 727 mmHg 48%
    05:00 +21°C° 0 mm 1 mps 727 mmHg 46%
    06:00 +21°C° 0 mm 1 mps 727 mmHg 45%
    07:00 +23°C° 0 mm 1 mps 728 mmHg 42%
    08:00 +25°C° 0 mm 1 mps 728 mmHg 40%
    09:00 +28°C° 0 mm 1 mps 728 mmHg 38%
    10:00 +28°C° 0 mm 2 mps 728 mmHg 40%
    11:00 +29°C° 0 mm 2 mps 727 mmHg 41%
    12:00 +29°C° 0 mm 3 mps 727 mmHg 43%
    13:00 +29°C° 0 mm 3 mps 727 mmHg 47%
    14:00 +28°C° 0 mm 3 mps 727 mmHg 51%
    15:00 +28°C° 0 mm 3 mps 727 mmHg 55%
    16:00 +26°C° 0 mm 2 mps 727 mmHg 64%
    17:00 +24°C° 0 mm 1 mps 727 mmHg 74%
    18:00 +22°C° 0 mm 1 mps 728 mmHg 83%
    19:00 +22°C° 0 mm 1 mps 728 mmHg 83%
    20:00 +21°C° 0 mm 1 mps 728 mmHg 82%
    21:00 +21°C° 0 mm 1 mps 729 mmHg 82%
    22:00 +21°C° 0 mm 1 mps 729 mmHg 81%
    23:00 +20°C° 0 mm 2 mps 729 mmHg 81%

    1 October, Monday

    Time Temperature Precipitation Wind Pressure Humidity
    00:00 +19°C° 0 mm 2 mps 729 mmHg 81%
    01:00 +19°C° 0 mm 2 mps 729 mmHg 82%
    02:00 +19°C° 0 mm 2 mps 729 mmHg 83%
    03:00 +19°C° 0 mm 2 mps 730 mmHg 84%
    04:00 +19°C° 0 mm 2 mps 730 mmHg 86%
    05:00 +18°C° 0 mm 2 mps 730 mmHg 87%
    06:00 +18°C° 0 mm 2 mps 730 mmHg 88%
    07:00 +20°C° 0 mm 3 mps 731 mmHg 81%
    08:00 +22°C° 0 mm 3 mps 731 mmHg 74%
    09:00 +24°C° 0 mm 3 mps 731 mmHg 66%
    10:00 +25°C° 0 mm 3 mps 731 mmHg 64%
    11:00 +25°C° 0 mm 3 mps 731 mmHg 62%
    12:00 +26°C° 0 mm 4 mps 731 mmHg 60%
    13:00 +25°C° 0 mm 3 mps 731 mmHg 62%
    14:00 +25°C° 0 mm 3 mps 731 mmHg 63%
    15:00 +25°C° 0 mm 3 mps 731 mmHg 65%
    16:00 +22°C° 0 mm 3 mps 731 mmHg 72%
    17:00 +21°C° 0 mm 2 mps 731 mmHg 78%
    18:00 +20°C° 0 mm 1 mps 731 mmHg 85%
    19:00 +20°C° 0 mm 1 mps 731 mmHg 85%
    20:00 +20°C° 0 mm 1 mps 732 mmHg 85%
    21:00 +19°C° 0 mm 1 mps 732 mmHg 85%
    22:00 +19°C° 0 mm 1 mps 732 mmHg 84%
    23:00 +19°C° 0 mm 1 mps 731 mmHg 82%
    Show more